When you browse on this site, cookies collect data to enhance your experience and personalize the content and advertising you see.
Visit our Privacy Policy to learn more. By continuing to use the site, you agree to this use of cookies and data.
  • In United Kingdom
  • List of Countries
  • For 7 days
  • Water Temperature
  • Weather Map
  • Weather Widgets
  • user-avatar
    Login

    Hourly Weather Konstantyna

    Today, 3 June, Wednesday

    Time Temperature Precipitation Wind Pressure Humidity
    00:00 +20°C° 0 mm 1 mps 708 mmHg 61%
    01:00 +17°C° 0 mm 0 mps 707 mmHg 61%
    02:00 +17°C° 0 mm 0 mps 707 mmHg 61%
    03:00 +17°C° 0 mm 0 mps 707 mmHg 61%
    04:00 +18°C° 0 mm 0 mps 707 mmHg 58%
    05:00 +21°C° 0 mm 1 mps 707 mmHg 54%
    06:00 +23°C° 0 mm 1 mps 708 mmHg 51%
    07:00 +24°C° 0 mm 1 mps 708 mmHg 46%
    08:00 +26°C° 0 mm 1 mps 708 mmHg 41%
    09:00 +28°C° 0 mm 1 mps 708 mmHg 36%
    10:00 +29°C° 0 mm 2 mps 708 mmHg 34%
    11:00 +30°C° 0 mm 2 mps 708 mmHg 32%
    12:00 +31°C° 0 mm 2 mps 708 mmHg 29%
    13:00 +31°C° 0 mm 3 mps 707 mmHg 29%
    14:00 +31°C° 0 mm 3 mps 707 mmHg 28%
    15:00 +31°C° 0 mm 3 mps 707 mmHg 28%
    16:00 +30°C° 0 mm 3 mps 706 mmHg 34%
    17:00 +28°C° 0 mm 2 mps 706 mmHg 40%
    18:00 +27°C° 0 mm 2 mps 705 mmHg 46%
    19:00 +25°C° 0 mm 2 mps 705 mmHg 48%
    20:00 +24°C° 0 mm 1 mps 706 mmHg 49%
    21:00 +23°C° 0 mm 1 mps 706 mmHg 51%
    22:00 +23°C° 0 mm 1 mps 705 mmHg 52%
    23:00 +22°C° 0 mm 1 mps 705 mmHg 53%

    Tomorrow, 4 June, Thursday

    Time Temperature Precipitation Wind Pressure Humidity
    00:00 +22°C° 0 mm 1 mps 704 mmHg 54%
    01:00 +22°C° 0 mm 1 mps 704 mmHg 54%
    02:00 +22°C° 0 mm 1 mps 704 mmHg 54%
    03:00 +22°C° 0 mm 1 mps 704 mmHg 54%
    04:00 +23°C° 0 mm 1 mps 704 mmHg 53%
    05:00 +24°C° 0 mm 1 mps 704 mmHg 51%
    06:00 +25°C° 0 mm 2 mps 704 mmHg 49%
    07:00 +27°C° 0 mm 3 mps 704 mmHg 41%
    08:00 +30°C° 0 mm 5 mps 705 mmHg 33%
    09:00 +33°C° 0 mm 6 mps 705 mmHg 24%
    10:00 +34°C° 0 mm 6 mps 705 mmHg 24%
    11:00 +35°C° 0 mm 6 mps 705 mmHg 24%
    12:00 +35°C° 0 mm 6 mps 705 mmHg 23%
    13:00 +34°C° 0 mm 6 mps 705 mmHg 26%
    14:00 +33°C° 0 mm 5 mps 704 mmHg 28%
    15:00 +32°C° 0 mm 5 mps 704 mmHg 31%
    16:00 +29°C° 0 mm 4 mps 704 mmHg 36%
    17:00 +27°C° 0 mm 4 mps 704 mmHg 41%
    18:00 +25°C° 0 mm 3 mps 704 mmHg 46%
    19:00 +23°C° 0.1 mm 2 mps 704 mmHg 52%
    20:00 +21°C° 0.1 mm 2 mps 705 mmHg 58%
    21:00 +20°C° 0.1 mm 1 mps 705 mmHg 64%
    22:00 +20°C° 0.2 mm 1 mps 705 mmHg 67%
    23:00 +19°C° 0.2 mm 1 mps 705 mmHg 71%

    Day after tomorrow, 5 June, Friday

    Time Temperature Precipitation Wind Pressure Humidity
    00:00 +19°C° 0.2 mm 1 mps 705 mmHg 74%
    01:00 +19°C° 0 mm 1 mps 704 mmHg 75%
    02:00 +18°C° 0 mm 1 mps 704 mmHg 75%
    03:00 +16°C° 0 mm 0 mps 704 mmHg 76%
    04:00 +19°C° 0 mm 1 mps 704 mmHg 71%
    05:00 +20°C° 0 mm 1 mps 704 mmHg 67%
    06:00 +21°C° 0 mm 1 mps 705 mmHg 62%
    07:00 +21°C° 0 mm 4 mps 705 mmHg 54%
    08:00 +23°C° 0 mm 6 mps 706 mmHg 46%
    09:00 +24°C° 0 mm 8 mps 707 mmHg 38%
    10:00 +26°C° 0 mm 8 mps 707 mmHg 37%
    11:00 +26°C° 0 mm 8 mps 707 mmHg 36%
    12:00 +27°C° 0 mm 7 mps 708 mmHg 35%
    13:00 +27°C° 0 mm 7 mps 708 mmHg 36%
    14:00 +27°C° 0 mm 7 mps 708 mmHg 36%
    15:00 +27°C° 0 mm 6 mps 708 mmHg 36%
    16:00 +26°C° 0 mm 5 mps 708 mmHg 41%
    17:00 +23°C° 0 mm 4 mps 708 mmHg 46%
    18:00 +22°C° 0 mm 3 mps 708 mmHg 51%
    19:00 +21°C° 0 mm 2 mps 708 mmHg 56%
    20:00 +20°C° 0 mm 1 mps 708 mmHg 61%
    21:00 +19°C° 0 mm 1 mps 709 mmHg 66%
    22:00 +19°C° 0 mm 1 mps 709 mmHg 67%
    23:00 +18°C° 0 mm 1 mps 708 mmHg 67%

    6 June, Saturday

    Time Temperature Precipitation Wind Pressure Humidity
    00:00 +18°C° 0 mm 1 mps 708 mmHg 68%
    01:00 +18°C° 0 mm 1 mps 708 mmHg 69%
    02:00 +16°C° 0 mm 0 mps 708 mmHg 69%
    03:00 +16°C° 0 mm 0 mps 708 mmHg 70%
    04:00 +19°C° 0 mm 1 mps 708 mmHg 66%
    05:00 +20°C° 0 mm 1 mps 709 mmHg 62%
    06:00 +21°C° 0 mm 1 mps 709 mmHg 58%
    07:00 +23°C° 0 mm 1 mps 709 mmHg 49%
    08:00 +26°C° 0 mm 2 mps 710 mmHg 40%
    09:00 +28°C° 0 mm 2 mps 710 mmHg 31%
    10:00 +29°C° 0 mm 3 mps 710 mmHg 27%
    11:00 +32°C° 0 mm 4 mps 710 mmHg 22%
    12:00 +33°C° 0 mm 5 mps 710 mmHg 18%
    13:00 +33°C° 0 mm 5 mps 710 mmHg 19%
    14:00 +34°C° 0 mm 5 mps 709 mmHg 20%
    15:00 +34°C° 0 mm 5 mps 709 mmHg 21%
    16:00 +32°C° 0 mm 4 mps 709 mmHg 27%
    17:00 +30°C° 0 mm 3 mps 709 mmHg 33%
    18:00 +28°C° 0 mm 2 mps 709 mmHg 39%
    19:00 +26°C° 0 mm 2 mps 709 mmHg 43%
    20:00 +25°C° 0 mm 1 mps 709 mmHg 47%
    21:00 +23°C° 0 mm 1 mps 709 mmHg 51%
    22:00 +23°C° 0 mm 1 mps 708 mmHg 51%
    23:00 +23°C° 0 mm 1 mps 708 mmHg 50%

    7 June, Sunday

    Time Temperature Precipitation Wind Pressure Humidity
    00:00 +23°C° 0 mm 1 mps 708 mmHg 49%
    01:00 +24°C° 0 mm 1 mps 708 mmHg 48%
    02:00 +24°C° 0 mm 1 mps 707 mmHg 47%
    03:00 +24°C° 0 mm 1 mps 707 mmHg 45%
    04:00 +25°C° 0.1 mm 1 mps 707 mmHg 46%
    05:00 +25°C° 0.1 mm 1 mps 708 mmHg 46%
    06:00 +26°C° 0.1 mm 1 mps 708 mmHg 46%
    07:00 +27°C° 0.1 mm 2 mps 709 mmHg 43%
    08:00 +28°C° 0.1 mm 2 mps 709 mmHg 41%
    09:00 +29°C° 0.1 mm 2 mps 709 mmHg 38%
    10:00 +30°C° 0 mm 3 mps 709 mmHg 35%
    11:00 +32°C° 0 mm 4 mps 709 mmHg 32%
    12:00 +32°C° 0 mm 4 mps 710 mmHg 29%
    13:00 +32°C° 0 mm 4 mps 709 mmHg 29%
    14:00 +32°C° 0 mm 5 mps 709 mmHg 30%
    15:00 +32°C° 0 mm 5 mps 709 mmHg 30%
    16:00 +30°C° 0 mm 4 mps 708 mmHg 34%
    17:00 +28°C° 0 mm 4 mps 708 mmHg 39%
    18:00 +27°C° 0 mm 4 mps 708 mmHg 43%
    19:00 +25°C° 0 mm 3 mps 708 mmHg 48%
    20:00 +23°C° 0 mm 2 mps 709 mmHg 54%
    21:00 +22°C° 0 mm 1 mps 709 mmHg 60%
    22:00 +21°C° 0.3 mm 1 mps 709 mmHg 64%
    23:00 +20°C° 0.3 mm 1 mps 709 mmHg 67%

    8 June, Monday

    Time Temperature Precipitation Wind Pressure Humidity
    00:00 +20°C° 0.3 mm 1 mps 708 mmHg 71%
    01:00 +20°C° 0.1 mm 1 mps 708 mmHg 71%
    02:00 +19°C° 0.1 mm 1 mps 708 mmHg 70%
    03:00 +19°C° 0.1 mm 1 mps 708 mmHg 70%
    04:00 +20°C° 0 mm 1 mps 708 mmHg 67%
    05:00 +21°C° 0 mm 1 mps 708 mmHg 63%
    06:00 +22°C° 0 mm 1 mps 708 mmHg 59%
    07:00 +23°C° 0 mm 1 mps 708 mmHg 54%
    08:00 +25°C° 0 mm 1 mps 709 mmHg 48%
    09:00 +27°C° 0 mm 2 mps 709 mmHg 43%
    10:00 +28°C° 0 mm 2 mps 709 mmHg 40%
    11:00 +29°C° 0 mm 3 mps 709 mmHg 38%
    12:00 +30°C° 0 mm 3 mps 709 mmHg 35%
    13:00 +29°C° 0 mm 4 mps 709 mmHg 37%
    14:00 +29°C° 0 mm 5 mps 709 mmHg 38%
    15:00 +29°C° 0 mm 6 mps 709 mmHg 40%
    16:00 +27°C° 0.4 mm 5 mps 708 mmHg 48%
    17:00 +25°C° 0.4 mm 4 mps 708 mmHg 57%
    18:00 +22°C° 0.4 mm 4 mps 708 mmHg 66%
    19:00 +21°C° 0.6 mm 3 mps 709 mmHg 72%
    20:00 +20°C° 0.6 mm 2 mps 709 mmHg 78%
    21:00 +17°C° 0.6 mm 0 mps 710 mmHg 85%
    22:00 +17°C° 0.1 mm 0 mps 709 mmHg 85%
    23:00 +19°C° 0.1 mm 1 mps 709 mmHg 86%
    Show more